EZY129 LKPR-LZKZ

Flight info

Callsign EZY129
Flight time 0h 50m
Altitude 29000
Route VOZ4B/30 VOZ DCT LIKSA DCT UPLAV DCT MAKAL DCT TAKOS
Aircraft A320/M-SDE3FGHIRWY/LB1

Departure

Time 2026-05-06 17:15
Airport Václav Havel Airport Prague (LKPR)

Arrival

Time 2026-05-06 18:05
Airport Košice International Airport (LZKZ)
Time Latitude Longitude Altitude Speed Heading
2026-05-06 16:50 50.10928 14.26618 1170 ft 0 kts 215°
2026-05-06 16:59 50.10928 14.26619 1175 ft 0 kts 215°
2026-05-06 17:04 50.10931 14.26622 1175 ft 2 kts 215°
2026-05-06 17:05 50.10945 14.26638 1170 ft 2 kts 215°
2026-05-06 17:05 50.10958 14.26654 1171 ft 2 kts 260°
2026-05-06 17:05 50.10958 14.26673 1172 ft 0 kts 307°
2026-05-06 17:05 50.10957 14.26676 1172 ft 0 kts 318°
2026-05-06 17:07 50.10965 14.26663 1172 ft 6 kts 312°
2026-05-06 17:07 50.11003 14.26589 1169 ft 9 kts 309°
2026-05-06 17:07 50.11025 14.26545 1171 ft 4 kts 300°
2026-05-06 17:07 50.11023 14.26492 1171 ft 9 kts 242°
2026-05-06 17:08 50.10963 14.26419 1168 ft 11 kts 214°
2026-05-06 17:08 50.10908 14.26361 1167 ft 9 kts 214°
2026-05-06 17:08 50.10841 14.26291 1170 ft 13 kts 214°
2026-05-06 17:08 50.10777 14.26224 1173 ft 9 kts 214°
2026-05-06 17:09 50.10721 14.26164 1179 ft 8 kts 214°
2026-05-06 17:09 50.10683 14.26124 1177 ft 7 kts 214°
2026-05-06 17:09 50.10599 14.26035 1184 ft 15 kts 214°
2026-05-06 17:09 50.10514 14.25980 1188 ft 12 kts 171°
2026-05-06 17:10 50.10466 14.26045 1191 ft 7 kts 130°
2026-05-06 17:10 50.10424 14.26136 1191 ft 18 kts 125°
2026-05-06 17:10 50.10351 14.26292 1194 ft 17 kts 126°
2026-05-06 17:10 50.10285 14.26431 1195 ft 16 kts 126°
2026-05-06 17:11 50.10194 14.26618 1202 ft 25 kts 128°
2026-05-06 17:11 50.10090 14.26828 1207 ft 24 kts 127°
2026-05-06 17:11 50.09991 14.27032 1209 ft 24 kts 127°
2026-05-06 17:11 50.09892 14.27239 1211 ft 24 kts 127°
2026-05-06 17:12 50.09777 14.27432 1213 ft 24 kts 135°
2026-05-06 17:12 50.09658 14.27614 1218 ft 23 kts 135°
2026-05-06 17:12 50.09551 14.27780 1225 ft 21 kts 135°
2026-05-06 17:12 50.09456 14.27929 1232 ft 18 kts 134°
2026-05-06 17:13 50.09367 14.28064 1251 ft 22 kts 136°
2026-05-06 17:13 50.09249 14.28242 1248 ft 24 kts 136°
2026-05-06 17:13 50.09145 14.28259 1239 ft 14 kts 211°
2026-05-06 17:13 50.09092 14.28126 1252 ft 17 kts 266°
2026-05-06 17:14 50.09139 14.27975 1242 ft 17 kts 306°
2026-05-06 17:14 50.09331 14.27571 1230 ft 82 kts 306°
2026-05-06 17:14 50.09806 14.26582 1207 ft 142 kts 307°
2026-05-06 17:14 50.10475 14.25243 1522 ft 159 kts 309°
2026-05-06 17:15 50.11163 14.23875 2125 ft 161 kts 307°
2026-05-06 17:15 50.11845 14.22460 2641 ft 170 kts 306°
2026-05-06 17:15 50.12594 14.20889 2897 ft 192 kts 306°
2026-05-06 17:15 50.13436 14.19119 3128 ft 215 kts 306°
2026-05-06 17:16 50.14382 14.17138 3434 ft 240 kts 306°
2026-05-06 17:16 50.15427 14.14955 3897 ft 261 kts 305°
2026-05-06 17:16 50.16532 14.12654 4673 ft 269 kts 305°
2026-05-06 17:16 50.17627 14.10267 5520 ft 272 kts 298°
2026-05-06 17:17 50.18642 14.07739 6372 ft 279 kts 309°
2026-05-06 17:17 50.20226 14.05949 7168 ft 288 kts 336°
2026-05-06 17:17 50.22214 14.05400 7974 ft 296 kts
2026-05-06 17:17 50.24208 14.06243 8765 ft 302 kts 29°
2026-05-06 17:18 50.25817 14.08345 9543 ft 305 kts 55°
2026-05-06 17:18 50.26765 14.11321 10077 ft 315 kts 78°
2026-05-06 17:18 50.26906 14.14803 10313 ft 331 kts 102°
2026-05-06 17:18 50.26222 14.18321 10541 ft 348 kts 113°
2026-05-06 17:19 50.25368 14.21921 11080 ft 357 kts 114°
2026-05-06 17:19 50.24494 14.25584 11741 ft 363 kts 114°
2026-05-06 17:19 50.23610 14.29302 12436 ft 368 kts 114°
2026-05-06 17:19 50.22718 14.33078 13102 ft 372 kts 114°
2026-05-06 17:20 50.21819 14.36896 13743 ft 377 kts 114°
2026-05-06 17:20 50.20911 14.40767 14299 ft 382 kts 114°
2026-05-06 17:20 50.19991 14.44680 14912 ft 386 kts 114°
2026-05-06 17:20 50.19062 14.48621 15502 ft 389 kts 114°
2026-05-06 17:21 50.18127 14.52584 15874 ft 390 kts 114°
2026-05-06 17:21 50.17183 14.56568 16509 ft 393 kts 115°
2026-05-06 17:21 50.16229 14.60588 17150 ft 396 kts 115°
2026-05-06 17:21 50.15270 14.64628 17776 ft 399 kts 115°
2026-05-06 17:22 50.14304 14.68701 18341 ft 402 kts 115°
2026-05-06 17:22 50.13330 14.72797 18877 ft 405 kts 115°
2026-05-06 17:22 50.12345 14.76922 19415 ft 408 kts 115°
2026-05-06 17:22 50.11347 14.81073 19923 ft 411 kts 115°
2026-05-06 17:23 50.10336 14.85265 20399 ft 415 kts 115°
2026-05-06 17:23 50.09320 14.89487 20905 ft 418 kts 115°
2026-05-06 17:23 50.08297 14.93740 21403 ft 421 kts 115°
2026-05-06 17:23 50.07266 14.98020 21871 ft 424 kts 116°
2026-05-06 17:24 50.06226 15.02328 22346 ft 427 kts 116°
2026-05-06 17:24 50.05176 15.06664 22813 ft 430 kts 116°
2026-05-06 17:24 50.04117 15.11030 23266 ft 432 kts 116°
2026-05-06 17:24 50.03050 15.15421 23636 ft 435 kts 116°
2026-05-06 17:25 50.01976 15.19828 23999 ft 437 kts 116°
2026-05-06 17:25 50.00892 15.24259 24300 ft 441 kts 116°
2026-05-06 17:25 49.99797 15.28724 24616 ft 444 kts 116°
2026-05-06 17:25 49.98690 15.33226 24948 ft 446 kts 116°
2026-05-06 17:26 49.97578 15.37744 25284 ft 449 kts 116°
2026-05-06 17:26 49.96460 15.42282 25612 ft 451 kts 116°
2026-05-06 17:26 49.95336 15.46846 25927 ft 454 kts 116°
2026-05-06 17:26 49.94204 15.51433 26255 ft 456 kts 116°
2026-05-06 17:27 49.93062 15.56041 26569 ft 459 kts 116°
2026-05-06 17:27 49.91926 15.60618 26870 ft 461 kts 116°
2026-05-06 17:27 49.90767 15.65269 27121 ft 464 kts 116°
2026-05-06 17:27 49.89599 15.69948 27393 ft 467 kts 116°
2026-05-06 17:28 49.88409 15.74711 27681 ft 469 kts 116°
2026-05-06 17:28 49.87228 15.79432 27952 ft 471 kts 116°
2026-05-06 17:28 49.86043 15.84172 28217 ft 473 kts 116°
2026-05-06 17:28 49.84861 15.88877 28467 ft 475 kts 117°
2026-05-06 17:29 49.83658 15.93651 28715 ft 477 kts 117°
2026-05-06 17:29 49.82432 15.98507 28956 ft 479 kts 117°
2026-05-06 17:29 49.81231 16.03252 29196 ft 481 kts 117°
2026-05-06 17:29 49.80008 16.08074 29415 ft 482 kts 117°
2026-05-06 17:30 49.78760 16.12982 29682 ft 483 kts 117°
2026-05-06 17:30 49.76332 16.22527 29755 ft 477 kts 117°
2026-05-06 17:31 49.73897 16.32053 29758 ft 476 kts 117°
2026-05-06 17:31 49.71444 16.41562 29760 ft 476 kts 117°
2026-05-06 17:32 49.68992 16.51062 29750 ft 477 kts 117°
2026-05-06 17:32 49.66534 16.60566 29758 ft 477 kts 117°
2026-05-06 17:33 49.64064 16.70073 29752 ft 477 kts 117°
2026-05-06 17:33 49.61588 16.79556 29764 ft 477 kts 117°
2026-05-06 17:34 49.59093 16.89021 29742 ft 476 kts 117°
2026-05-06 17:34 49.56599 16.98449 29772 ft 475 kts 117°
2026-05-06 17:35 49.54109 17.07862 29764 ft 475 kts 117°
2026-05-06 17:35 49.51614 17.17266 29776 ft 474 kts 117°
2026-05-06 17:36 49.47866 17.31318 29761 ft 474 kts 117°
2026-05-06 17:36 49.45347 17.40698 29766 ft 474 kts 117°
2026-05-06 17:37 49.42826 17.50062 29776 ft 474 kts 117°
2026-05-06 17:37 49.40296 17.59414 29781 ft 474 kts 117°
2026-05-06 17:38 49.37753 17.68762 29783 ft 474 kts 117°
2026-05-06 17:38 49.35623 17.76576 29789 ft 474 kts 117°
2026-05-06 17:39 49.33073 17.85893 29618 ft 473 kts 117°
2026-05-06 17:39 49.31796 17.90542 29771 ft 474 kts 117°
2026-05-06 17:39 49.30513 17.95209 29635 ft 474 kts 117°
2026-05-06 17:40 49.29231 17.99867 29255 ft 475 kts 117°
2026-05-06 17:40 49.27947 18.04521 28848 ft 474 kts 117°
2026-05-06 17:40 49.25365 18.13819 28814 ft 475 kts 117°
2026-05-06 17:41 49.22707 18.23085 28820 ft 475 kts 119°
2026-05-06 17:41 49.19915 18.32222 28826 ft 474 kts 120°
2026-05-06 17:42 49.17085 18.41325 28840 ft 474 kts 120°
2026-05-06 17:42 49.14275 18.50446 28837 ft 474 kts 119°
2026-05-06 17:43 49.11481 18.59536 28845 ft 473 kts 119°
2026-05-06 17:43 49.08681 18.68622 28552 ft 473 kts 119°
2026-05-06 17:44 49.07284 18.73166 28283 ft 473 kts 119°
2026-05-06 17:44 49.05878 18.77711 27821 ft 474 kts 119°
2026-05-06 17:44 49.04467 18.82244 27228 ft 472 kts 119°
2026-05-06 17:44 49.03066 18.86744 26799 ft 468 kts 119°
2026-05-06 17:45 49.01671 18.91215 26548 ft 467 kts 119°
2026-05-06 17:45 49.00280 18.95676 26057 ft 463 kts 119°
2026-05-06 17:45 48.98903 19.00088 25563 ft 460 kts 119°
2026-05-06 17:45 48.97532 19.04460 25080 ft 456 kts 119°
2026-05-06 17:46 48.96165 19.08804 24604 ft 452 kts 119°
2026-05-06 17:46 48.94811 19.13099 24140 ft 449 kts 119°
2026-05-06 17:46 48.93467 19.17365 23677 ft 446 kts 119°
2026-05-06 17:46 48.92133 19.21601 23158 ft 443 kts 119°
2026-05-06 17:47 48.90809 19.25798 22865 ft 440 kts 119°
2026-05-06 17:47 48.89485 19.29981 22849 ft 440 kts 119°
2026-05-06 17:47 48.88153 19.34167 22403 ft 437 kts 119°
2026-05-06 17:47 48.86836 19.38302 21819 ft 433 kts 119°
2026-05-06 17:48 48.85532 19.42401 21258 ft 430 kts 120°
2026-05-06 17:48 48.84237 19.46476 20649 ft 427 kts 119°
2026-05-06 17:48 48.82950 19.50520 20026 ft 424 kts 119°
2026-05-06 17:48 48.81668 19.54538 19422 ft 422 kts 119°
2026-05-06 17:49 48.80391 19.58547 18818 ft 421 kts 118°
2026-05-06 17:49 48.79512 19.62781 18230 ft 424 kts 102°
2026-05-06 17:49 48.79421 19.67261 17565 ft 427 kts 89°
2026-05-06 17:49 48.79609 19.71740 16909 ft 425 kts 89°
2026-05-06 17:50 48.79810 19.76208 16275 ft 423 kts 88°
2026-05-06 17:50 48.80014 19.80642 15648 ft 422 kts 88°
2026-05-06 17:50 48.80216 19.85071 15033 ft 419 kts 88°
2026-05-06 17:50 48.80409 19.89462 14430 ft 417 kts 88°
2026-05-06 17:51 48.80595 19.93821 14022 ft 409 kts 89°
2026-05-06 17:51 48.80778 19.98055 13835 ft 396 kts 89°
2026-05-06 17:51 48.80956 20.02191 13571 ft 390 kts 89°
2026-05-06 17:51 48.81127 20.06285 13192 ft 387 kts 89°
2026-05-06 17:52 48.81291 20.10347 12823 ft 385 kts 89°
2026-05-06 17:52 48.81451 20.14392 12461 ft 383 kts 89°
2026-05-06 17:52 48.81611 20.18419 12101 ft 382 kts 89°
2026-05-06 17:52 48.81772 20.22430 11747 ft 380 kts 89°
2026-05-06 17:53 48.81928 20.26374 11402 ft 378 kts 89°
2026-05-06 17:53 48.82085 20.30354 11054 ft 379 kts 89°
2026-05-06 17:53 48.82243 20.34376 10699 ft 375 kts 89°
2026-05-06 17:53 48.82396 20.38266 10370 ft 373 kts 88°
2026-05-06 17:54 48.82550 20.42229 9944 ft 366 kts 88°
2026-05-06 17:54 48.82695 20.45972 9486 ft 346 kts 89°
2026-05-06 17:54 48.82829 20.49525 9017 ft 329 kts 89°
2026-05-06 17:54 48.82955 20.52915 8586 ft 314 kts 89°
2026-05-06 17:55 48.83076 20.56154 8510 ft 303 kts 89°
2026-05-06 17:55 48.83193 20.59337 8521 ft 303 kts 89°
2026-05-06 17:55 48.83310 20.62525 8519 ft 303 kts 89°
2026-05-06 17:55 48.83423 20.65682 8517 ft 303 kts 89°
2026-05-06 17:56 48.83538 20.68877 8259 ft 303 kts 89°
2026-05-06 17:56 48.83653 20.72059 7961 ft 301 kts 89°
2026-05-06 17:56 48.83764 20.75229 7659 ft 299 kts 90°
2026-05-06 17:56 48.83875 20.78362 7360 ft 298 kts 90°
2026-05-06 17:57 48.83984 20.81511 7065 ft 299 kts 90°
2026-05-06 17:57 48.84094 20.84654 6779 ft 297 kts 90°
2026-05-06 17:57 48.84201 20.87759 6538 ft 292 kts 90°
2026-05-06 17:57 48.84306 20.90806 6294 ft 285 kts 91°
2026-05-06 17:58 48.84409 20.93779 6019 ft 280 kts 90°
2026-05-06 17:58 48.84508 20.96707 5689 ft 276 kts 91°
2026-05-06 17:58 48.84603 20.99581 5493 ft 268 kts 90°
2026-05-06 17:58 48.84694 21.02310 5487 ft 252 kts 91°
2026-05-06 17:59 48.84780 21.04936 5500 ft 248 kts 92°
2026-05-06 17:59 48.84863 21.07563 5508 ft 249 kts 91°
2026-05-06 17:59 48.84946 21.10192 5429 ft 251 kts 90°
2026-05-06 17:59 48.85031 21.12829 5125 ft 248 kts 91°
2026-05-06 18:00 48.85117 21.15460 4849 ft 248 kts 91°
2026-05-06 18:00 48.85200 21.18057 4574 ft 245 kts 93°
2026-05-06 18:00 48.85084 21.20590 4306 ft 237 kts 107°
2026-05-06 18:00 48.84708 21.23017 4194 ft 238 kts 109°
2026-05-06 18:01 48.84330 21.25464 4080 ft 237 kts 110°
2026-05-06 18:01 48.83749 21.27722 3951 ft 223 kts 135°
2026-05-06 18:01 48.82581 21.29093 3840 ft 209 kts 165°
2026-05-06 18:01 48.81193 21.29342 3517 ft 198 kts 193°
2026-05-06 18:02 48.79857 21.28868 3243 ft 199 kts 196°
2026-05-06 18:02 48.78506 21.28384 2963 ft 198 kts 196°
2026-05-06 18:02 48.77199 21.27928 2722 ft 189 kts 196°
2026-05-06 18:02 48.75959 21.27497 2437 ft 176 kts 195°
2026-05-06 18:03 48.74807 21.27096 2203 ft 166 kts 195°
2026-05-06 18:03 48.73741 21.26723 1999 ft 148 kts 194°
2026-05-06 18:03 48.72784 21.26388 1803 ft 137 kts 195°
2026-05-06 18:03 48.71866 21.26066 1620 ft 135 kts 196°
2026-05-06 18:04 48.70950 21.25741 1450 ft 135 kts 193°
2026-05-06 18:04 48.70023 21.25416 1271 ft 137 kts 194°
2026-05-06 18:04 48.69098 21.25091 1092 ft 137 kts 195°
2026-05-06 18:04 48.68181 21.24778 899 ft 136 kts 194°
2026-05-06 18:05 48.67285 21.24448 761 ft 125 kts 192°
2026-05-06 18:05 48.66712 21.24273 764 ft 63 kts 193°
2026-05-06 18:05 48.66446 21.24179 756 ft 44 kts 193°
2026-05-06 18:05 48.66104 21.24056 756 ft 52 kts 193°
2026-05-06 18:06 48.65932 21.23995 755 ft 23 kts 193°
2026-05-06 18:06 48.65619 21.23879 751 ft 50 kts 195°
2026-05-06 18:06 48.65390 21.23778 752 ft 17 kts 226°
2026-05-06 18:06 48.65410 21.23648 750 ft 13 kts 310°
2026-05-06 18:07 48.65476 21.23544 751 ft 13 kts 313°
2026-05-06 18:07 48.65519 21.23477 753 ft 0 kts 322°
2026-05-06 18:08 48.65564 21.23547 751 ft 25 kts 68°
2026-05-06 18:08 48.65595 21.23812 747 ft 23 kts 57°
2026-05-06 18:08 48.65770 21.23934 753 ft 38 kts 18°
2026-05-06 18:08 48.65898 21.24074 755 ft 14 kts 97°
2026-05-06 18:09 48.65885 21.24215 757 ft 17 kts 98°
2026-05-06 18:09 48.65922 21.24334 757 ft 0 kts 20°
2026-05-06 18:09 48.65923 21.24334 757 ft 1 kts 20°
2026-05-06 18:09 48.66032 21.24372 752 ft 32 kts 11°
2026-05-06 18:10 48.66208 21.24429 753 ft 24 kts 12°
2026-05-06 18:10 48.66372 21.24485 752 ft 24 kts 13°
2026-05-06 18:10 48.66517 21.24535 758 ft 19 kts 13°
2026-05-06 18:10 48.66659 21.24584 760 ft 24 kts 13°
2026-05-06 18:11 48.66852 21.24655 762 ft 33 kts 12°
2026-05-06 18:11 48.66999 21.24706 764 ft 30 kts 13°
2026-05-06 18:11 48.67175 21.24725 761 ft 14 kts 311°
2026-05-06 18:11 48.67197 21.24624 762 ft 0 kts 282°
2026-05-06 18:12 48.67201 21.24598 762 ft 12 kts 282°
2026-05-06 18:13 48.67230 21.24387 762 ft 24 kts 282°
2026-05-06 18:13 48.67269 21.24139 763 ft 23 kts 284°
2026-05-06 18:13 48.67300 21.23960 765 ft 13 kts 285°
2026-05-06 18:13 48.67321 21.23905 766 ft 4 kts 315°
2026-05-06 18:14 48.67334 21.23882 767 ft 3 kts 308°
2026-05-06 18:14 48.67339 21.23860 767 ft 2 kts 275°
2026-05-06 18:14 48.67336 21.23848 767 ft 0 kts 252°